This is the latest recevied weather packets stored in our database for station/object KB3CAT. If no packets are shown the sender has not sent any weather packets the latest 10 day(s).
| Time | Temp. | Humidity | Pressure | Rain* | Wind** | Luminosity | Snow |
|---|---|---|---|---|---|---|---|
| 1777546396 | 10° C | 96% | 1008 hPa | 0.25 mm | - | - | - |
| 1777545796 | 9.44° C | 95% | 1007.7 hPa | 0.25 mm | - | - | - |
| 1777543396 | 10° C | 95% | 1007.3 hPa | 0 mm | - | - | - |
| 1777538596 | 10.56° C | 95% | 1007 hPa | 0 mm | - | - | - |
| 1777537996 | 10.56° C | 95% | 1006.9 hPa | 0 mm | - | - | - |
| 1777535617 | 10.56° C | 95% | 1006.5 hPa | 0 mm | - | - | - |
| 1777535016 | 10.56° C | 95% | 1006.3 hPa | 0 mm | - | - | - |
| 1777534397 | 10.56° C | 95% | 1006.2 hPa | 0 mm | - | - | - |
| 1777528996 | 11.11° C | 94% | 1006.7 hPa | 0.51 mm | - | - | - |
| 1777518196 | 11.67° C | 94% | 1007.1 hPa | 0 mm | - | - | - |
| 1777517596 | 11.67° C | 94% | 1007.3 hPa | 0 mm | - | - | - |
| 1777515796 | 12.22° C | 93% | 1007.2 hPa | 0 mm | - | - | - |
| 1777514636 | 12.22° C | 94% | 1007.1 hPa | 0.76 mm | - | - | - |
| 1777509796 | 12.22° C | 93% | 1007.7 hPa | 6.6 mm | - | - | - |
| 1777505617 | 12.22° C | 92% | 1005.8 hPa | 7.62 mm | - | - | - |
| 1777504996 | 12.22° C | 91% | 1005.5 hPa | 6.35 mm | - | - | - |
| 1777504396 | 12.22° C | 91% | 1006.4 hPa | 6.1 mm | - | - | - |
| 1777503196 | 12.22° C | 91% | 1006.4 hPa | 4.06 mm | - | - | - |
| 1777501397 | 12.22° C | 91% | 1006.6 hPa | 3.81 mm | - | - | - |
| 1777498396 | 12.78° C | 89% | 1007.2 hPa | 2.54 mm | - | - | - |
| 1777496596 | 12.78° C | 89% | 1006.9 hPa | 2.54 mm | - | - | - |
| 1777494217 | 13.33° C | 87% | 1008 hPa | 0.76 mm | - | - | - |
| 1777492996 | 13.33° C | 86% | 1008.4 hPa | 0 mm | - | - | - |
| 1777491197 | 13.33° C | 87% | 1008.7 hPa | 0 mm | - | - | - |
| 1777489996 | 13.33° C | 87% | 1009.4 hPa | 0 mm | - | - | - |
* Rain latest hour (hover to see other rain measurements)
** Current wind speed in m/s (hover to see current wind gust speed)